Погода в Мшинской

Россия / Санкт-Петербург и Ленинградская область     59°00′56″N   29°56′21″E
темп.,
°C
ветер,
м/с
пор.,
м/с
влажн.,
%
обл.,
%
осадки,
мм/ч
давл.,
гПа
погр.,
м
24 октября, вс
вс2400:00+3ссз4883100 0.1 1011984
03:00+1сз498548 0.1 1014820
06:000сз410895 0.0 1017471
09:000сз379493 0.1 1019525
12:00+3ссз4668100 0.2 10221096
15:00+3сз356288 0.2 10231277
18:000зсз257966 0.0 1025103
21:00−1зюз228290 0.0 102548
25 октября, пн
пн2500:000ююз2681100 0.0 1025214
03:00+1ююз31180100 0.0 1023374
06:00+2ююз51383100 0.0 1021558
09:00+3юз51491100 0.2 1020596
12:00+5юз51489100 0.1 1019808
15:00+7зюз61282100 0.1 1018986
18:00+7зюз51177100 0.0 10171087
21:00+5юз513876 0.0 1017651
26 октября, вт
вт2600:00+4юз412875 0.0 1017469
03:00+3юз4118891 0.0 1016392
06:00+3юз31089100 0.0 1015356
09:00+3ююз31087100 0.0 1014370
12:00+5юз497574 0.0 1014498
15:00+7юз3975100 0.0 1013694
18:00+5юз3985100 0.0 1013439
21:00+5юз41188100 0.0 1012378
27 октября, ср
ср2700:00+6юз41188100 0.1 1011485
03:00+6юз31093100 0.4 1010478
06:00+6юз31095100 0.4 1010567
09:00+8з4882100 0.4 1010822
12:00+7зюз387892 0.1 1011822
15:00+8з476797 0.1 10111076
18:00+6зюз4108111 0.0 1013468
21:00+5з31188100 0.0 1014406
28 октября, чт
чт2800:00+4зюз299165 0.0 1015231
03:00+4юз289660 0.0 1015210
06:00+4ю2697100 0.0 1014163
09:00+5юв3798100 3.6 1013232
12:00+6вюв3798100 5.2 1012335
15:00+6в2598100 6.9 1013228
18:00+5всв2598100 0.1 1015269
21:00+6в2697100 0.1 1018337